Location: Burland Observatory
(39.4088°N, 105.4217°W)
Time: 22:25:02
(UTC-07:00)

Vanguard 3 - Pass Details

Date: 15 December 2019
Orbit: 507 x 3263 km, 33.4° (Epoch: 22 January)

Event Time Altitude Azimuth Distance (km) Brightness Sun altitude
Rises 12:17:34 0° 275° (W) 4,976 11.2 27.1°
Reaches altitude 10° 12:20:45 10° 267° (W) 4,330 11.1 27.1°
Maximum altitude 12:31:48 36° 207° (SSW) 3,642 12.3 26.8°
Drops below altitude 10° 12:47:33 10° 150° (SSE) 6,110 12.4 26.2°
Sets 12:53:14 0° 143° (SE) 7,216 12.5 25.9°
